Total_Precipitation_Accumulation
2.70 2.72 2.80 2.86 2.69 2.77 2.94 3.19 3.07 3.13 3.18 2.95 2.68 2.61 2.79 2.87 2.93 2.96 3.02 3.19 3.07 3.13 3.77 4.01 3.65 3.21 3.03 2.61 2.35 2.06 1.86 1.75 1.60 1.33 1.17 1.14 1.17 1.24 1.18 1.04 1.01 0.98 0.86
3.01 2.96 2.79 2.86 2.73 2.69 2.80 3.05 3.09 3.49 3.51 3.45 2.98 2.78 2.86 2.92 2.92 3.02 2.96 3.27 3.19 3.01 3.43 3.83 3.93 3.76 3.52 3.22 2.93 2.59 2.30 2.16 1.95 1.59 1.38 1.25 1.25 1.30 1.26 1.28 1.24 1.18 1.11
3.07 3.02 2.95 2.80 2.77 2.83 3.06 3.12 3.15 3.45 3.47 3.46 3.34 3.09 2.94 2.71 2.60 2.73 2.74 2.89 2.88 2.87 3.12 3.46 3.74 3.86 3.88 3.75 3.63 3.40 2.94 2.57 2.27 1.90 1.60 1.38 1.25 1.29 1.30 1.33 1.36 1.35 1.31
2.99 3.13 2.97 2.72 2.80 2.77 2.98 3.32 3.45 3.63 3.81 3.81 3.56 3.24 3.02 2.90 2.68 2.68 2.55 2.52 2.78 2.46 2.77 3.18 3.42 3.61 4.08 4.35 4.45 4.47 3.94 3.22 2.62 2.31 2.01 1.72 1.48 1.39 1.33 1.37 1.40 1.36 1.28
2.85 3.07 2.96 2.85 2.86 3.03 3.08 2.88 3.49 3.83 3.99 3.95 3.29 3.15 2.81 2.70 2.56 2.40 2.47 2.35 2.53 2.60 2.68 2.71 2.86 3.10 3.94 4.78 5.15 5.31 5.15 4.24 3.39 2.94 2.64 2.31 1.96 1.68 1.45 1.43 1.45 1.35 1.22
2.76 3.06 2.80 2.80 2.92 3.23 3.33 3.39 3.82 3.89 3.76 3.97 3.29 2.92 2.53 2.19 2.16 2.17 2.04 2.08 2.15 2.12 2.37 2.80 3.14 2.88 3.39 4.04 4.46 4.82 5.21 5.08 4.40 3.62 3.20 2.89 2.61 2.25 1.87 1.67 1.60 1.54 1.38
2.89 3.33 2.97 3.24 3.15 3.20 3.24 3.41 3.68 3.68 3.48 3.80 3.81 3.11 2.30 1.83 1.84 1.75 1.74 1.86 1.84 1.85 2.15 2.71 3.07 3.13 2.95 2.83 3.05 3.55 4.30 4.84 4.77 4.12 3.69 3.43 3.28 2.90 2.47 2.20 1.95 1.78 1.64
2.99 3.06 3.28 3.19 3.22 3.32 3.12 3.20 3.52 3.37 2.99 3.40 3.74 3.71 2.88 2.34 1.87 1.40 1.55 1.62 1.72 1.91 1.93 2.02 2.47 2.98 2.93 2.98 2.66 2.52 3.19 4.04 4.57 4.61 4.26 3.92 3.68 3.35 2.97 2.65 2.30 1.98 1.73
3.00 3.07 3.02 2.97 3.11 3.07 3.01 3.01 3.20 3.30 3.12 3.13 3.52 3.88 3.26 2.58 2.05 1.57 1.48 1.43 1.71 2.06 2.05 2.05 2.23 2.61 2.79 3.02 3.12 2.95 2.73 3.00 3.86 4.93 5.07 4.45 3.71 3.16 2.91 2.88 2.78 2.45 2.21
3.27 3.03 2.85 2.80 2.81 2.73 2.82 2.60 2.89 3.10 3.23 2.95 3.08 3.13 2.99 2.90 2.73 2.06 1.64 1.51 1.75 1.98 2.09 2.06 2.14 2.37 2.58 2.90 3.19 3.01 2.52 2.30 2.75 3.92 4.70 4.68 4.09 3.30 2.91 3.09 3.45 3.32 2.89
3.30 2.93 2.88 2.86 2.81 2.69 2.58 2.51 2.73 2.68 2.80 2.81 2.86 2.89 2.94 2.91 2.70 2.45 2.06 1.89 1.81 1.57 1.58 1.74 1.98 2.23 2.39 2.64 3.01 2.88 2.65 2.54 2.48 2.67 3.12 3.54 3.78 3.57 3.27 3.34 3.82 4.10 3.89
2.88 2.65 2.60 2.64 2.56 2.57 2.56 2.51 2.53 2.49 2.58 2.68 2.69 2.69 2.82 2.83 2.77 2.78 2.45 2.20 1.99 1.68 1.58 1.65 1.81 1.99 2.12 2.25 2.30 2.48 2.46 2.45 2.30 2.16 2.18 2.29 2.60 3.00 3.29 3.63 4.12 4.55 4.73
2.14 2.13 2.22 2.29 2.23 2.28 2.31 2.46 2.38 2.30 2.39 2.56 2.56 2.54 2.62 2.63 2.68 2.79 2.69 2.24 2.06 1.87 1.90 1.75 1.64 1.83 1.88 2.10 2.29 2.27 2.02 2.02 1.88 1.79 1.80 1.85 2.04 2.30 2.57 2.89 3.45 4.04 4.48
1.86 1.94 2.04 2.03 1.99 2.02 1.97 2.26 2.15 2.10 2.20 2.26 2.16 2.49 2.50 2.26 2.46 2.63 2.70 2.68 2.45 2.28 2.30 2.02 1.78 1.78 1.89 2.04 2.20 2.14 1.84 1.74 1.53 1.42 1.44 1.47 1.52 1.68 1.94 2.24 2.53 2.86 3.23
1.86 1.92 1.91 1.96 1.95 2.00 2.06 2.19 2.06 2.01 2.21 2.17 2.11 2.35 2.31 2.16 2.25 2.37 2.58 2.79 2.93 2.71 2.53 2.33 2.01 1.83 1.84 1.91 2.17 1.99 1.99 1.85 1.53 1.42 1.37 1.31 1.27 1.34 1.50 1.72 1.92 2.14 2.42
1.95 1.95 1.94 2.03 1.95 1.93 1.96 2.01 1.80 1.82 2.07 2.13 2.18 2.38 2.34 2.24 2.31 2.38 2.53 2.82 3.12 3.11 2.69 2.21 2.03 1.94 2.02 1.96 2.19 1.95 1.88 1.92 1.66 1.42 1.32 1.31 1.27 1.28 1.35 1.51 1.68 1.85 2.02
1.95 1.89 1.85 1.86 1.86 1.84 1.89 1.92 1.71 1.85 2.01 2.07 2.09 2.24 2.29 2.42 2.48 2.49 2.60 2.74 3.01 3.24 2.91 2.36 2.25 2.23 2.35 2.33 2.23 2.00 1.78 1.69 1.51 1.46 1.31 1.24 1.23 1.26 1.31 1.37 1.52 1.67 1.77
1.91 1.93 1.92 1.87 1.76 1.79 1.99 2.05 1.91 2.00 2.10 2.09 2.12 2.26 2.16 2.33 2.50 2.46 2.57 2.59 2.71 3.05 2.92 2.64 2.59 2.53 2.50 2.40 2.40 2.23 1.91 1.73 1.66 1.63 1.41 1.30 1.26 1.23 1.26 1.29 1.39 1.57 1.71
1.96 2.04 2.06 2.06 2.04 2.08 2.09 2.16 2.25 2.21 2.13 2.07 2.12 2.12 2.08 2.28 2.28 2.38 2.50 2.49 2.50 2.67 2.84 2.76 2.71 2.78 2.74 2.62 2.57 2.39 2.20 2.13 1.81 1.72 1.63 1.53 1.51 1.49 1.45 1.43 1.44 1.50 1.62
2.01 2.12 2.14 2.26 2.43 2.47 2.46 2.42 2.32 2.25 2.20 2.17 2.13 2.08 2.03 2.05 2.08 2.18 2.29 2.41 2.50 2.64 2.78 2.81 2.85 2.96 2.93 2.98 2.97 2.75 2.60 2.51 2.18 1.80 1.81 1.70 1.64 1.54 1.45 1.38 1.35 1.41 1.52
1.87 2.18 2.33 2.42 2.69 2.81 2.62 2.63 2.56 2.44 2.44 2.27 2.14 2.05 1.90 1.92 1.98 2.01 1.97 2.10 2.26 2.42 2.47 2.56 2.67 2.89 2.94 3.05 3.04 2.89 2.75 2.75 2.56 2.12 1.96 1.83 1.76 1.64 1.61 1.57 1.47 1.41 1.42
1.76 1.95 2.09 2.20 2.25 2.09 2.24 2.27 2.25 2.30 2.33 2.22 2.15 2.08 1.93 1.83 1.81 1.76 1.66 1.69 1.81 1.95 2.15 2.39 2.48 2.69 2.89 3.05 3.26 3.29 3.12 2.94 2.78 2.49 2.39 2.26 2.00 1.90 1.72 1.56 1.55 1.36 1.23
1.74 1.82 1.85 1.90 1.87 1.92 1.96 1.74 1.68 1.67 1.85 1.97 2.03 2.03 1.79 1.64 1.73 1.64 1.66 1.63 1.64 1.77 1.90 2.15 2.32 2.42 2.68 2.89 3.15 3.28 3.28 3.17 2.99 2.83 2.69 2.58 2.24 2.00 1.78 1.66 1.59 1.32 1.16
1.82 1.81 1.85 1.88 1.95 1.93 1.83 1.60 1.58 1.54 1.67 1.79 1.86 1.90 1.87 1.80 1.80 1.83 1.74 1.62 1.54 1.62 1.73 1.69 1.75 1.94 2.22 2.61 2.80 2.85 3.04 3.08 2.96 2.78 2.70 2.66 2.37 2.13 1.91 1.80 1.72 1.42 1.24
2.06 2.02 2.10 2.12 2.08 1.98 1.84 1.65 1.65 1.59 1.70 1.73 1.74 1.75 1.76 1.71 1.81 1.70 1.60 1.58 1.56 1.59 1.59 1.56 1.51 1.55 1.72 1.96 2.32 2.49 2.59 2.56 2.45 2.21 2.10 2.17 2.14 2.11 2.04 1.91 1.74 1.61 1.38
2.54 2.55 2.42 2.25 2.12 2.00 1.96 1.68 1.60 1.52 1.60 1.68 1.76 1.71 1.64 1.52 1.52 1.48 1.45 1.56 1.54 1.55 1.61 1.55 1.43 1.36 1.32 1.49 1.83 2.02 2.14 2.19 2.08 2.02 1.75 1.73 1.77 1.84 1.95 1.79 1.64 1.59 1.51